Location: Newark
(11.2914°S, 14.4718°E)
Time: 09:35:44
(UTC+00:00)

Envisat - Visible Passes

Search period start: 18 July 2019 00:00
Search period end: 28 July 2019 00:00
Orbit: 764 x 766 km, 98.1° (Epoch: 18 July)

Date Brightness Start Highest point End Pass type
(mag) Time Alt. Az. Time Alt. Az. Time Alt. Az.
18 Jul 5.7 04:42:21 10° ENE 04:45:20 16° ESE 04:48:20 10° SE visible
18 Jul 5.1 18:45:01 10° SSW 18:48:59 23° WSW 18:52:56 10° NW visible
19 Jul 3.4 18:07:21 10° S 18:12:24 64° WSW 18:17:25 10° NNW visible
20 Jul 3.3 17:30:52 10° SSE 17:35:43 45° E 17:40:32 10° N visible
20 Jul 5.9 19:12:59 10° WSW 19:14:19 11° WSW 19:15:39 10° W visible
21 Jul 6.0 04:32:36 10° E 04:34:11 11° ESE 04:35:46 10° SE visible
21 Jul 4.7 18:33:21 10° SSW 18:37:48 31° WSW 18:42:14 10° NW visible
22 Jul 3.0 17:56:04 10° S 18:01:11 87° W 18:06:16 10° NNW visible
23 Jul 5.4 04:55:30 10° NE 04:59:31 24° ESE 05:03:32 10° SSE visible
23 Jul 3.7 17:19:56 10° SE 17:24:29 33° E 17:29:00 10° NNE visible
23 Jul 5.7 19:00:16 10° SW 19:03:09 15° WSW 19:06:02 10° WNW visible
24 Jul 4.2 18:21:50 10° S 18:26:36 42° WSW 18:31:22 10° NW visible
25 Jul 2.9 17:44:53 10° SSE 17:49:58 69° ENE 17:55:00 10° N visible
26 Jul 5.7 04:45:00 10° ENE 04:48:20 18° ESE 04:51:42 10° SSE visible
26 Jul 5.3 18:48:16 10° SSW 18:51:59 21° WSW 18:55:42 10° WNW visible
27 Jul 3.6 18:10:25 10° S 18:15:25 57° WSW 18:20:22 10° NNW visible
